Location: Lombray
(49.5154°N, 3.1089°E)
Time: 16:00:33
(UTC+00:00)

Cosmos 2322 - Pass Details

Date: 15 May 2026
Orbit: 840 x 853 km, 71.0° (Epoch: 10 June)

Event Time Altitude Azimuth Distance (km) Brightness Sun altitude
Rises 21:48:58 0° 333° (NNW) 3,428 8.7 -16.9°
Reaches altitude 10° 21:51:32 10° 339° (NNW) 2,487 7.4 -17.1°
Maximum altitude 21:57:03 48° 54° (NE) 1,099 4.3 -17.5°
Enters shadow 22:00:23 23° 118° (ESE) 1,738 4.9 -17.7°
